• In Portugal
  • List of Countries
  • For 7 days
  • Water Temperature
  • Satellite Maps
  • Weather Map
  • Weather Widgets
  • user-avatar
    Login

    Hourly Weather Recife

    Today, 21 February, Wednesday

    Time Temperature Precipitation Wind Pressure Humidity
    00:00 +28°C° 0.1 mm 3 mps 757 mmHg 81%
    01:00 +28°C° 0.1 mm 3 mps 757 mmHg 82%
    02:00 +27°C° 0.1 mm 3 mps 757 mmHg 82%
    03:00 +27°C° 0.1 mm 3 mps 757 mmHg 83%
    04:00 +27°C° 0.1 mm 3 mps 756 mmHg 83%
    05:00 +27°C° 0 mm 3 mps 757 mmHg 83%
    06:00 +27°C° 0 mm 3 mps 757 mmHg 83%
    07:00 +27°C° 0 mm 3 mps 757 mmHg 83%
    08:00 +29°C° 0 mm 3 mps 757 mmHg 76%
    09:00 +30°C° 0 mm 3 mps 758 mmHg 69%
    10:00 +33°C° 0 mm 4 mps 758 mmHg 62%
    11:00 +33°C° 0 mm 4 mps 757 mmHg 59%
    12:00 +34°C° 0 mm 4 mps 757 mmHg 56%
    13:00 +35°C° 0 mm 4 mps 757 mmHg 53%
    14:00 +34°C° 0 mm 4 mps 756 mmHg 55%
    15:00 +34°C° 0 mm 4 mps 756 mmHg 57%
    16:00 +34°C° 0 mm 4 mps 755 mmHg 58%
    17:00 +32°C° 0 mm 4 mps 755 mmHg 63%
    18:00 +30°C° 0 mm 4 mps 755 mmHg 68%
    19:00 +29°C° 0 mm 4 mps 755 mmHg 73%
    20:00 +29°C° 0 mm 4 mps 756 mmHg 75%
    21:00 +29°C° 0 mm 4 mps 756 mmHg 77%
    22:00 +28°C° 0 mm 3 mps 757 mmHg 79%
    23:00 +28°C° 0 mm 3 mps 757 mmHg 80%

    Tomorrow, 22 February, Thursday

    Time Temperature Precipitation Wind Pressure Humidity
    00:00 +28°C° 0 mm 3 mps 757 mmHg 82%
    01:00 +28°C° 0 mm 3 mps 757 mmHg 83%
    02:00 +27°C° 0.1 mm 3 mps 756 mmHg 84%
    03:00 +27°C° 0.1 mm 2 mps 756 mmHg 84%
    04:00 +27°C° 0.1 mm 2 mps 756 mmHg 85%
    05:00 +27°C° 0.4 mm 2 mps 756 mmHg 84%
    06:00 +27°C° 0.4 mm 2 mps 756 mmHg 84%
    07:00 +27°C° 0.4 mm 2 mps 757 mmHg 84%
    08:00 +29°C° 1.1 mm 3 mps 757 mmHg 77%
    09:00 +30°C° 1.1 mm 3 mps 758 mmHg 71%
    10:00 +31°C° 1.1 mm 3 mps 758 mmHg 64%
    11:00 +33°C° 1.3 mm 3 mps 758 mmHg 62%
    12:00 +33°C° 1.3 mm 3 mps 757 mmHg 59%
    13:00 +34°C° 1.3 mm 3 mps 757 mmHg 56%
    14:00 +34°C° 0.2 mm 4 mps 756 mmHg 57%
    15:00 +34°C° 0.2 mm 4 mps 755 mmHg 57%
    16:00 +33°C° 0.2 mm 4 mps 755 mmHg 58%
    17:00 +32°C° 0 mm 4 mps 755 mmHg 63%
    18:00 +30°C° 0 mm 4 mps 755 mmHg 67%
    19:00 +29°C° 0 mm 3 mps 756 mmHg 72%
    20:00 +29°C° 0.2 mm 3 mps 756 mmHg 74%
    21:00 +29°C° 0.2 mm 3 mps 757 mmHg 76%
    22:00 +28°C° 0.2 mm 3 mps 757 mmHg 78%
    23:00 +28°C° 0.1 mm 3 mps 757 mmHg 80%

    Day after tomorrow, 23 February, Friday

    Time Temperature Precipitation Wind Pressure Humidity
    00:00 +28°C° 0.1 mm 3 mps 756 mmHg 82%
    01:00 +28°C° 0.1 mm 3 mps 756 mmHg 83%
    02:00 +28°C° 0.1 mm 2 mps 756 mmHg 84%
    03:00 +27°C° 0.1 mm 2 mps 756 mmHg 85%
    04:00 +27°C° 0.1 mm 2 mps 755 mmHg 86%
    05:00 +27°C° 0.2 mm 2 mps 756 mmHg 85%
    06:00 +27°C° 0.2 mm 2 mps 756 mmHg 85%
    07:00 +27°C° 0.2 mm 2 mps 757 mmHg 85%
    08:00 +29°C° 0.3 mm 2 mps 757 mmHg 79%
    09:00 +30°C° 0.3 mm 3 mps 757 mmHg 73%
    10:00 +31°C° 0.3 mm 3 mps 758 mmHg 67%
    11:00 +33°C° 0.2 mm 3 mps 757 mmHg 65%
    12:00 +33°C° 0.2 mm 4 mps 757 mmHg 63%
    13:00 +34°C° 0.2 mm 4 mps 756 mmHg 60%
    14:00 +34°C° 0.2 mm 4 mps 756 mmHg 62%
    15:00 +33°C° 0.2 mm 4 mps 755 mmHg 63%
    16:00 +33°C° 0.2 mm 4 mps 755 mmHg 64%
    17:00 +32°C° 0 mm 4 mps 755 mmHg 68%
    18:00 +30°C° 0 mm 4 mps 755 mmHg 72%
    19:00 +29°C° 0 mm 4 mps 756 mmHg 77%
    20:00 +29°C° 0 mm 3 mps 756 mmHg 78%
    21:00 +28°C° 0 mm 3 mps 757 mmHg 79%
    22:00 +28°C° 0 mm 3 mps 757 mmHg 81%
    23:00 +28°C° 0 mm 2 mps 757 mmHg 82%

    24 February, Saturday

    Time Temperature Precipitation Wind Pressure Humidity
    00:00 +27°C° 0 mm 2 mps 757 mmHg 82%
    01:00 +27°C° 0 mm 2 mps 756 mmHg 83%
    02:00 +27°C° 0 mm 1 mps 756 mmHg 83%
    03:00 +27°C° 0 mm 1 mps 756 mmHg 84%
    04:00 +26°C° 0 mm 1 mps 755 mmHg 84%
    05:00 +26°C° 0 mm 1 mps 756 mmHg 84%
    06:00 +26°C° 0 mm 1 mps 756 mmHg 84%
    07:00 +26°C° 0 mm 1 mps 757 mmHg 85%
    08:00 +28°C° 0 mm 1 mps 757 mmHg 76%
    09:00 +30°C° 0 mm 1 mps 757 mmHg 67%
    10:00 +32°C° 0 mm 1 mps 757 mmHg 59%
    11:00 +32°C° 0 mm 2 mps 757 mmHg 57%
    12:00 +34°C° 0 mm 2 mps 756 mmHg 55%
    13:00 +35°C° 0 mm 3 mps 756 mmHg 54%
    14:00 +34°C° 0 mm 3 mps 755 mmHg 56%
    15:00 +34°C° 0 mm 4 mps 755 mmHg 58%
    16:00 +33°C° 0 mm 4 mps 754 mmHg 60%
    17:00 +32°C° 0 mm 4 mps 755 mmHg 65%
    18:00 +30°C° 0 mm 4 mps 755 mmHg 70%
    19:00 +29°C° 0 mm 4 mps 756 mmHg 75%
    20:00 +29°C° 0 mm 4 mps 756 mmHg 77%
    21:00 +28°C° 0 mm 4 mps 756 mmHg 78%
    22:00 +28°C° 0 mm 3 mps 757 mmHg 80%
    23:00 +28°C° 0 mm 3 mps 757 mmHg 80%

    25 February, Sunday

    Time Temperature Precipitation Wind Pressure Humidity
    00:00 +28°C° 0 mm 3 mps 757 mmHg 80%
    01:00 +27°C° 0 mm 2 mps 756 mmHg 81%
    02:00 +27°C° 0 mm 2 mps 756 mmHg 81%
    03:00 +27°C° 0 mm 2 mps 756 mmHg 81%
    04:00 +27°C° 0 mm 1 mps 756 mmHg 81%
    05:00 +27°C° 0.1 mm 1 mps 756 mmHg 81%
    06:00 +27°C° 0.1 mm 1 mps 757 mmHg 81%
    07:00 +27°C° 0.1 mm 1 mps 757 mmHg 81%
    08:00 +28°C° 0.3 mm 2 mps 757 mmHg 73%
    09:00 +30°C° 0.3 mm 2 mps 758 mmHg 65%
    10:00 +31°C° 0.3 mm 3 mps 758 mmHg 58%
    11:00 +33°C° 0.1 mm 3 mps 758 mmHg 57%
    12:00 +33°C° 0.1 mm 3 mps 757 mmHg 56%
    13:00 +33°C° 0.1 mm 4 mps 757 mmHg 55%
    14:00 +33°C° 0 mm 4 mps 757 mmHg 55%
    15:00 +33°C° 0 mm 4 mps 756 mmHg 56%
    16:00 +33°C° 0 mm 4 mps 756 mmHg 56%
    17:00 +32°C° 0 mm 4 mps 756 mmHg 61%
    18:00 +30°C° 0 mm 4 mps 756 mmHg 65%
    19:00 +29°C° 0 mm 3 mps 757 mmHg 70%
    20:00 +29°C° 0 mm 3 mps 757 mmHg 72%
    21:00 +28°C° 0 mm 3 mps 757 mmHg 74%
    22:00 +28°C° 0 mm 3 mps 758 mmHg 76%
    23:00 +28°C° 0.1 mm 3 mps 757 mmHg 77%

    26 February, Monday

    Time Temperature Precipitation Wind Pressure Humidity
    00:00 +28°C° 0.1 mm 3 mps 757 mmHg 78%
    01:00 +27°C° 0.1 mm 2 mps 757 mmHg 80%
    02:00 +27°C° 0.1 mm 2 mps 757 mmHg 80%
    03:00 +27°C° 0.1 mm 2 mps 757 mmHg 81%
    04:00 +27°C° 0.1 mm 2 mps 757 mmHg 81%
    05:00 +27°C° 0.1 mm 2 mps 757 mmHg 81%
    06:00 +27°C° 0.1 mm 2 mps 757 mmHg 81%
    07:00 +27°C° 0.1 mm 2 mps 757 mmHg 80%
    08:00 +29°C° 0.1 mm 2 mps 758 mmHg 74%
    09:00 +30°C° 0.1 mm 3 mps 758 mmHg 67%
    10:00 +31°C° 0.1 mm 3 mps 758 mmHg 60%
    11:00 +31°C° 0.1 mm 3 mps 758 mmHg 60%
    12:00 +33°C° 0.1 mm 4 mps 758 mmHg 59%
    13:00 +33°C° 0.1 mm 4 mps 757 mmHg 59%
    14:00 +33°C° 0 mm 4 mps 757 mmHg 58%
    15:00 +33°C° 0 mm 4 mps 756 mmHg 58%
    16:00 +33°C° 0 mm 4 mps 756 mmHg 58%
    17:00 +32°C° 0 mm 4 mps 756 mmHg 63%
    18:00 +30°C° 0 mm 4 mps 757 mmHg 67%
    19:00 +29°C° 0 mm 4 mps 757 mmHg 72%
    20:00 +29°C° 0 mm 4 mps 757 mmHg 74%
    21:00 +28°C° 0 mm 3 mps 757 mmHg 76%
    22:00 +28°C° 0 mm 3 mps 758 mmHg 79%
    23:00 +28°C° 0 mm 3 mps 758 mmHg 79%
    Show more